Location: Blangy-Tronville
(49.8790°N, 2.4226°E)
Time: 07:42:42
(UTC+00:00)

Cosmos 1943 Rocket - Pass Details

Date: 18 November 2025
Orbit: 812 x 841 km, 71.0° (Epoch: 13 December)

Event Time Altitude Azimuth Distance (km) Brightness Sun altitude
Rises 17:22:00 0° 199° (SSW) 3,372 5.8 -12.6°
Reaches altitude 10° 17:24:26 10° 197° (SSW) 2,438 5.0 -13.0°
Maximum altitude 17:30:00 70° 115° (ESE) 882 2.1 -13.8°
Enters shadow 17:35:23 11° 33° (NNE) 2,372 4.1 -14.7°
